CAPE
377 913 1126 1226 1270 1180 1089 1272 1448 1639 1922 2096 2131 2357 2584 2757 2740 2698 2632 2512 2389 2336 2102 2142 2158 2049 1891 1892 2001 2137 2200 2194 2062 2060 1922 1665 1194 1115 1101 1213 1278 1240 1621
434 938 987 1093 1182 1170 1150 1286 1468 1623 1925 2160 2167 2284 2510 2624 2615 2585 2497 2352 2220 2002 1802 1736 1778 1759 1687 1822 2047 2018 1941 1843 1894 1999 1826 1332 1201 1119 1055 1105 1292 1267 1597
692 905 845 916 1102 1143 1223 1372 1595 1654 1818 1994 2193 2288 2460 2500 2514 2459 2372 2240 2132 1946 1531 1521 1621 1610 1601 1723 1840 1845 1583 1474 1462 1476 1223 810 979 1156 952 1130 1530 1430 1361
757 827 678 852 977 1092 1153 1341 1565 1664 1771 1881 2049 2236 2339 2349 2309 2316 2240 2127 2074 1956 1435 1298 1362 1467 1537 1677 1610 1622 1486 1269 904 705 736 865 876 1115 1050 1231 1096 1036 1085
730 753 585 725 817 1002 1115 1278 1492 1497 1520 1661 1865 2131 2298 2330 2291 2223 2105 2157 2108 2172 1562 1130 1155 1245 1285 1117 1143 1206 1002 775 653 318 442 739 813 1035 1080 1162 1128 1020 969
641 672 631 575 676 920 1093 1248 1326 1299 1189 1325 1600 1959 2183 2238 2127 2057 1951 2171 2135 2124 1640 1217 1105 1239 966 881 876 706 429 439 407 185 454 742 768 1095 1150 1049 1039 1028 1126
527 602 495 510 578 844 1085 1188 1121 1032 988 1146 1345 1611 1908 2051 2000 1776 1755 1963 2066 2099 1879 1483 1335 1059 905 685 538 210 274 274 311 197 432 718 904 1522 1132 929 938 965 905
392 495 445 518 552 677 895 879 781 790 852 964 1063 1207 1541 1584 1518 1548 1550 1614 1793 1757 1441 1121 931 756 542 497 342 259 275 209 278 379 281 708 1362 1583 1057 927 984 1039 786
311 394 443 477 520 504 655 607 517 615 712 759 792 888 952 936 1101 1300 1344 1397 1495 1294 914 727 641 491 407 395 271 273 277 313 397 340 414 727 1762 1670 1135 882 831 835 705
262 281 412 445 432 374 388 429 357 423 503 544 566 624 510 537 798 1049 1054 1137 1122 990 739 597 433 334 186 175 128 208 250 124 123 443 507 633 1688 1680 1208 822 689 751 693
126 191 304 369 363 293 311 313 262 306 340 353 401 390 251 271 564 843 862 869 787 633 533 488 325 152 90 102 111 139 180 113 132 495 517 599 1653 1688 1289 968 1005 814 619
13 102 176 242 263 225 269 293 189 192 186 162 175 143 49 106 351 562 674 685 534 357 300 283 180 91 78 86 49 5 114 119 236 303 457 501 1516 1572 1263 1096 1018 828 852
2 2 92 139 148 131 284 199 145 121 102 82 60 32 2 27 222 396 438 501 344 169 80 78 50 19 11 42 2 0 49 357 460 387 586 494 1304 1851 1476 1302 1025 876 939
18 0 19 82 109 101 238 145 98 57 51 37 13 0 0 0 69 147 213 293 187 34 0 0 0 0 0 0 0 47 187 220 505 430 516 452 917 2025 1832 1577 1157 972 997
79 65 15 19 61 82 160 105 66 58 31 8 0 0 0 0 0 12 64 103 74 15 0 0 0 0 0 0 0 0 263 386 441 482 445 404 741 1452 2222 1824 1363 1166 1146
214 144 124 67 19 38 78 73 53 36 17 14 0 0 0 0 0 0 0 27 25 0 0 0 0 0 0 0 0 0 139 329 400 429 424 425 602 1181 1670 2114 1939 1502 1375
480 280 161 187 173 26 0 11 7 11 9 0 0 0 0 0 0 0 0 0 6 0 0 0 0 0 0 0 0 0 20 297 320 310 341 369 477 899 1237 1653 1717 1696 1753
451 710 450 331 350 229 30 1 0 0 0 0 0 0 0 0 0 0 0 0 0 0 0 0 0 0 0 0 0 7 3 257 342 274 286 370 474 520 662 930 1602 1532 1463
526 777 747 606 493 399 226 78 4 0 0 0 0 0 0 0 0 0 0 0 0 0 0 0 15 0 0 0 0 9 61 168 318 290 351 236 377 490 506 540 683 856 1098
181 632 861 740 701 559 475 252 89 8 0 0 0 0 0 0 0 0 0 0 0 0 0 0 41 16 4 0 19 74 125 211 315 323 402 311 306 482 441 417 442 444 474
0 63 813 740 619 685 727 602 247 99 9 0 0 0 0 0 0 0 0 0 0 0 25 76 125 98 86 96 62 130 170 193 301 321 325 299 266 298 385 417 344 388 412
0 69 707 754 642 636 769 821 556 257 120 32 9 0 1 19 231 87 0 0 0 16 149 199 329 226 170 140 143 232 299 237 313 331 290 271 293 337 308 310 347 329 300
0 201 610 894 844 726 715 795 767 594 458 248 173 194 286 334 466 511 216 177 264 9 144 326 504 259 259 205 202 270 292 299 166 133 190 293 374 416 411 420 313 188 103
0 3 454 784 956 912 885 855 850 811 666 631 460 420 637 725 663 701 758 626 648 497 221 544 796 870 473 368 435 336 349 347 284 191 181 226 310 292 167 123 78 12 37
0 0 169 646 917 1028 1138 1117 1028 977 866 781 764 818 925 1077 1069 992 968 928 907 894 780 558 748 977 897 507 506 308 299 313 361 267 258 256 306 309 181 64 26 45 34
0 0 7 508 722 1090 1171 1273 1271 1178 1137 1077 984 978 940 1117 1275 1247 1132 1072 952 829 865 961 939 916 1054 670 629 408 342 327 302 261 259 303 357 365 260 91 51 27 3
CIN
-455 -271 -224 -208 -217 -219 -218 -181 -142 -89 -48 -23 -16 -4 0 0 0 0 0 0 0 0 -1 0 0 -3 -4 -1 0 0 0 0 0 0 0 0 -5 -1 -1 0 0 0 0
-520 -295 -265 -251 -237 -216 -213 -165 -130 -86 -29 -5 -3 0 0 0 0 0 0 0 -1 -1 -2 -3 -2 -3 -6 -3 0 0 0 -1 -2 -1 0 -11 -14 -11 -11 -10 -1 -4 0
-458 -324 -312 -294 -251 -229 -204 -150 -115 -92 -47 -18 -4 0 0 0 0 0 0 -2 -3 -2 -12 -11 -4 -3 -5 -3 -4 -1 -10 -15 -16 -17 -32 -68 -38 -17 -39 -17 0 -1 -1
-468 -364 -361 -309 -274 -245 -223 -166 -129 -101 -72 -40 -16 -5 -3 -5 -5 -2 -1 -5 -7 -6 -22 -26 -19 -10 -10 -16 -20 -12 -7 -15 -50 -85 -72 -64 -56 -23 -28 -11 -13 -15 -12
-458 -390 -393 -336 -310 -266 -235 -189 -146 -133 -125 -88 -48 -12 -2 0 -1 -3 -6 -4 -3 0 -16 -41 -40 -36 -47 -58 -43 -36 -52 -71 -82 -139 -113 -66 -66 -29 -23 -14 -13 -21 -18
-455 -402 -378 -374 -351 -286 -247 -203 -178 -181 -179 -149 -96 -24 -5 -1 -11 -18 -21 -7 -11 -5 -17 -40 -53 -58 -86 -77 -60 -74 -64 -64 -102 -188 -120 -71 -64 -39 -36 -40 -31 -16 -4
-489 -426 -414 -399 -386 -308 -247 -219 -224 -237 -216 -162 -133 -72 -28 -7 -9 -43 -57 -31 -16 -19 -22 -39 -47 -63 -79 -102 -126 -187 -52 -57 -64 -165 -116 -67 -51 -9 -37 -53 -34 -19 -11
-570 -476 -465 -416 -397 -345 -282 -274 -294 -283 -248 -196 -168 -142 -81 -68 -48 -53 -64 -67 -42 -41 -65 -85 -100 -110 -128 -135 -52 -58 -47 -53 -76 -85 -143 -85 -32 -12 -43 -54 -44 -26 -33
-570 -524 -476 -447 -412 -389 -330 -327 -349 -321 -287 -252 -219 -180 -176 -176 -127 -82 -73 -79 -80 -84 -122 -138 -147 -173 -191 -61 -66 -59 -55 -38 -62 -99 -38 -97 -15 -8 -27 -37 -35 -37 -44
-581 -551 -496 -443 -413 -418 -405 -357 -360 -347 -323 -307 -288 -245 -272 -260 -192 -140 -107 -94 -114 -135 -152 -161 -187 -210 -259 -104 -129 -93 -81 -101 -102 -108 -49 -116 -19 -8 -18 -42 -56 -52 -51
-655 -592 -524 -488 -454 -451 -437 -408 -374 -350 -336 -336 -321 -330 -354 -345 -245 -193 -162 -150 -150 -188 -201 -208 -242 -274 -299 -284 -227 -120 -114 -122 -106 -67 -107 -146 -33 -8 -13 -39 -21 -28 -43
-879 -692 -607 -551 -509 -488 -442 -430 -424 -385 -363 -373 -373 -388 -468 -407 -299 -248 -211 -208 -213 -248 -256 -267 -305 -341 -333 -227 -222 -55 -117 -116 -125 -150 -77 -167 -47 -14 -18 -24 -21 -27 -25
-975 -132 -719 -648 -607 -563 -454 -467 -471 -451 -441 -439 -448 -449 -168 -484 -333 -289 -258 -244 -276 -324 -365 -339 -371 -413 -413 -287 -65 0 -177 -117 -98 -99 -79 -71 -67 -11 -25 -22 -19 -26 -14
-464 0 -891 -724 -685 -639 -502 -513 -527 -536 -509 -498 -516 0 0 0 -425 -367 -329 -303 -332 -405 0 0 0 0 0 0 0 -161 -156 -169 -113 -105 -114 -205 -123 -8 -11 -8 -10 -16 -4
-509 -383 -424 -879 -782 -697 -584 -586 -576 -576 -590 -434 0 0 0 0 0 -279 -415 -369 -379 -455 0 0 0 0 0 0 0 0 -119 -121 -130 -121 -106 -91 -125 -34 0 -1 0 -5 -9
-649 -478 -352 -376 -316 -774 -675 -662 -660 -628 -636 -603 0 0 0 0 0 0 0 -431 -415 0 0 0 0 0 0 0 0 0 -158 -143 -132 -119 -102 -89 -126 -38 -4 -1 0 0 0
-524 -560 -420 -369 -339 -166 -4 -737 -446 -683 -666 0 0 0 0 0 0 0 0 0 -392 0 0 0 0 0 0 0 0 0 -226 -130 -126 -135 -126 -106 -116 -59 -32 -7 -3 -2 0
-406 -446 -382 -341 -327 -303 -114 -13 0 0 0 0 0 0 0 0 0 0 0 0 0 0 0 0 0 0 0 0 0 -410 -355 -187 -137 -147 -140 -104 -69 -49 -63 -39 -5 -3 -3
-363 -449 -414 -344 -316 -313 -282 -95 -66 0 0 0 0 0 0 0 0 0 0 0 0 0 0 0 -272 0 0 0 0 -245 -241 -160 -113 -122 -96 -137 -87 -29 -24 -28 -50 -23 -13
-309 -408 -442 -343 -258 -259 -274 -193 -124 -143 0 0 0 0 0 0 0 0 0 0 0 0 0 0 -183 -242 -238 0 -252 -208 -162 -123 -93 -107 -88 -89 -102 -58 -49 -40 -40 -43 -39
0 -529 -510 -458 -458 -331 -246 -252 -140 -145 -184 0 0 0 0 0 0 0 0 0 0 -18 -206 -139 -104 -107 -91 -84 -150 -116 -107 -118 -92 -75 -76 -74 -81 -70 -33 -18 -44 -39 -36
0 -818 -575 -571 -564 -460 -323 -224 -166 -155 -172 -221 -616 -12 -99 -129 -135 -131 0 0 0 -272 -145 -109 -62 -60 -56 -40 -51 -35 -34 -62 -72 -54 -44 -41 -23 -17 -21 -24 -21 -23 -50
0 -712 -581 -576 -548 -515 -392 -288 -233 -188 -448 -503 -543 -439 -279 -175 -87 -60 -67 -76 -81 -78 -184 -99 -49 -69 -45 -12 -13 -5 -20 -60 -85 -108 -90 -56 -16 -8 -2 -9 -22 -49 -82
0 -121 -595 -553 -534 -513 -450 -365 -246 -234 -456 -438 -387 -340 -209 -141 -75 -42 -23 -18 -23 -44 -81 -98 -22 -6 -18 -15 0 -1 -4 -30 -38 -68 -67 -50 -25 -18 -26 -29 -30 -68 -75
0 0 -760 -572 -530 -502 -454 -395 -317 -271 -203 -206 -288 -246 -156 -97 -53 -23 -13 -5 -4 -2 -16 -42 -24 -3 -3 -10 0 -4 -6 -13 -5 -10 -28 -21 -5 -1 -11 -32 -66 -74 -156
0 0 -691 -616 -545 -474 -421 -372 -316 -259 -222 -209 -177 -148 -145 -74 -34 -17 -9 -3 -2 -8 -10 -6 -2 -8 -4 -6 -4 -22 -13 -9 -15 -25 -23 -10 -4 0 -1 -24 -100 -134 -173
Wind_Speed
24 27 31 29 22 19 15 13 16 19 19 17 13 11 12 12 11 9 7 5 6 6 7 7 8 9 10 12 12 9 7 6 7 9 10 9 8 6 6 4 3 3 2
27 26 30 31 26 21 18 14 15 18 19 19 18 15 14 14 12 11 10 7 5 5 6 6 7 7 7 7 4 4 4 4 6 7 8 8 8 9 8 4 5 5 4
27 26 27 31 31 25 20 18 16 18 19 19 18 15 13 13 12 9 9 10 8 6 6 6 6 6 6 4 2 3 4 4 3 5 7 6 4 10 9 5 4 4 3
26 24 26 31 32 30 23 20 19 18 18 18 18 17 15 14 12 10 7 9 10 8 7 6 6 6 5 3 4 4 4 2 3 3 7 9 8 10 10 7 5 4 1
23 23 26 30 31 30 28 22 19 18 17 18 18 18 16 15 13 11 9 7 8 9 10 8 7 6 3 5 4 3 1 2 7 7 6 10 9 11 10 8 5 5 3
21 21 25 29 29 30 29 25 20 19 17 17 18 17 16 16 16 12 10 9 10 10 10 9 8 6 6 4 3 2 1 4 2 9 8 9 8 13 11 9 8 7 7
20 19 22 26 29 29 31 27 23 19 16 14 15 16 16 15 13 13 12 10 8 8 9 8 7 5 5 5 5 5 5 4 6 9 8 8 8 14 15 15 14 12 12
23 20 21 26 29 30 30 27 25 21 17 14 13 15 16 15 13 12 11 10 8 7 8 8 7 7 6 6 4 5 5 4 5 9 10 10 12 16 16 16 15 14 14
18 21 19 20 25 29 28 26 24 23 21 17 14 13 14 15 13 12 11 10 9 8 7 5 6 7 8 6 3 4 6 9 8 9 10 10 14 15 14 14 14 14 15
17 18 23 19 21 24 26 25 24 24 22 19 16 13 14 14 14 11 11 10 10 10 9 7 8 7 8 7 3 6 8 8 7 10 7 8 13 15 16 16 16 15 15
16 19 21 24 22 23 25 24 23 25 24 21 17 14 11 8 9 10 8 10 10 10 10 10 9 9 nan 12 7 5 5 5 8 6 4 10 14 16 15 18 19 16 16
nan 19 20 22 23 22 22 22 19 18 18 16 13 9 nan 6 7 6 8 9 10 8 10 10 8 nan nan nan nan nan 7 5 4 4 4 8 11 14 15 16 16 11 9
nan nan nan 19 22 25 22 22 18 15 16 nan nan nan nan nan 7 4 2 4 4 6 nan nan nan nan nan nan nan nan nan 7 5 1 0 9 14 13 16 13 18 9 6
nan nan nan nan 20 24 20 20 nan nan nan nan nan nan nan nan nan 9 5 5 7 nan nan nan nan nan nan nan nan nan 6 3 4 1 3 9 8 6 9 10 11 12 3
nan nan nan nan nan nan 22 18 nan nan nan nan nan nan nan nan nan nan nan 10 nan nan nan nan nan nan nan nan nan nan 6 4 2 5 5 6 8 8 7 11 14 17 17
20 21 23 nan nan nan nan nan nan nan nan nan nan nan nan nan nan nan nan nan nan nan nan nan nan nan nan nan nan nan 5 7 5 7 8 9 13 13 13 14 16 16 13
20 18 24 25 24 nan nan nan nan nan nan nan nan nan nan nan nan nan nan nan nan nan nan nan nan nan nan nan nan nan nan 9 10 9 10 13 16 17 19 18 17 18 17
15 21 19 21 22 22 nan nan nan nan nan nan nan nan nan nan nan nan nan nan nan nan nan nan nan nan nan nan nan nan nan 14 14 15 16 15 17 21 20 16 16 16 18
12 16 18 20 23 22 21 nan nan nan nan nan nan nan nan nan nan nan nan nan nan nan nan nan nan nan nan nan nan nan nan 21 18 20 19 19 21 24 23 21 20 18 17
12 14 13 15 21 18 14 14 nan nan nan nan nan nan nan nan nan nan nan nan nan nan nan nan nan nan nan nan nan nan 30 28 26 24 22 21 24 24 24 22 22 25 23
nan nan 15 17 19 19 15 16 15 nan nan nan nan nan nan nan nan nan nan nan nan nan nan nan 33 nan nan nan nan 35 34 33 29 31 35 30 27 29 27 27 30 30 29
nan nan 18 17 21 21 19 17 13 16 15 nan nan nan nan nan 33 nan nan nan nan nan 33 35 36 40 38 41 40 40 35 37 35 35 36 37 36 35 32 30 32 33 33
nan 23 20 21 24 23 23 22 21 19 17 17 18 21 26 30 32 32 30 28 31 nan 32 36 39 34 39 41 40 42 41 33 41 41 37 39 39 39 40 37 35 36 35
nan nan 21 22 25 28 28 27 28 26 23 21 19 20 24 29 32 32 32 32 33 31 31 34 40 41 45 40 45 43 45 42 40 39 40 40 41 40 40 41 nan nan nan
nan nan 25 26 28 30 29 27 28 27 27 28 26 25 24 27 29 30 30 33 34 33 31 36 39 41 44 45 44 48 48 48 48 49 47 44 45 46 45 nan nan nan nan
nan nan nan 30 30 31 31 30 30 31 31 32 31 28 27 28 29 30 29 30 30 31 32 35 37 38 41 41 44 43 45 49 48 49 47 48 47 47 47 nan nan nan nan
Wind_Direction
19 13 12 11 9 6 360 350 342 337 336 331 331 321 324 322 319 324 319 289 282 273 264 262 272 283 290 289 284 288 290 286 290 292 294 295 290 291 295 310 339 70 49
352 6 11 6 3 5 357 358 348 343 342 340 342 342 340 335 332 334 331 331 330 295 276 273 273 280 281 278 283 292 289 284 285 317 315 318 319 325 325 354 35 59 50
346 359 9 4 360 1 359 359 354 348 346 345 347 348 340 336 335 340 339 344 347 329 303 291 289 286 283 258 241 257 260 264 312 328 335 38 34 333 346 12 87 36 35
344 355 8 4 356 356 357 3 355 350 350 346 348 347 347 344 338 339 352 356 352 341 315 299 294 289 284 266 264 269 265 292 7 19 64 36 9 348 352 355 7 357 293
344 0 6 4 354 353 355 359 357 351 352 352 349 348 347 346 343 345 360 5 7 349 330 321 310 301 286 290 303 329 342 24 1 4 67 48 23 1 354 347 335 332 328
347 1 4 360 359 354 349 355 356 355 353 358 355 350 353 352 349 344 357 8 14 5 347 337 342 349 344 335 359 49 151 118 53 31 45 52 42 349 344 343 340 323 308
352 359 5 358 0 357 353 349 352 352 354 358 356 355 356 1 358 355 354 5 17 14 5 5 13 14 5 350 2 65 93 107 56 49 46 55 56 355 347 342 338 332 323
351 355 3 359 1 358 357 354 346 349 350 354 0 358 0 1 7 2 3 3 6 21 20 17 16 17 18 13 358 71 112 111 69 27 37 48 42 11 3 353 348 341 333
357 350 358 1 359 357 358 356 354 346 350 351 353 358 4 4 4 10 4 4 13 25 27 18 24 18 29 38 42 93 111 116 76 55 37 52 37 21 10 357 346 336 328
3 356 354 353 353 354 357 357 358 357 349 351 348 355 360 1 360 8 359 4 12 23 33 35 56 58 65 79 100 122 135 129 103 63 62 59 39 26 12 359 346 338 334
10 6 359 355 353 351 349 359 358 0 359 352 351 353 349 354 2 10 354 3 13 27 24 37 57 72 nan 106 122 137 128 110 108 75 38 33 29 19 356 346 342 337 340
nan 11 4 1 358 352 356 354 358 3 8 3 353 351 nan 331 334 9 350 357 7 18 29 29 59 nan nan nan nan nan 158 131 106 90 71 31 29 22 1 357 334 322 338
nan nan nan 353 349 351 356 359 1 359 3 nan nan nan nan nan 307 311 276 320 290 333 nan nan nan nan nan nan nan nan nan 166 175 101 35 2 4 12 17 22 13 17 32
nan nan nan nan 337 343 338 358 nan nan nan nan nan nan nan nan nan 293 271 272 274 nan nan nan nan nan nan nan nan nan 190 196 223 141 42 346 340 345 5 4 8 24 147
nan nan nan nan nan nan 330 343 nan nan nan nan nan nan nan nan nan nan nan 273 nan nan nan nan nan nan nan nan nan nan 179 178 314 280 261 326 322 320 337 339 351 355 354
343 351 347 nan nan nan nan nan nan nan nan nan nan nan nan nan nan nan nan nan nan nan nan nan nan nan nan nan nan nan 206 263 261 270 270 290 323 319 324 333 342 344 348
337 341 343 348 343 nan nan nan nan nan nan nan nan nan nan nan nan nan nan nan nan nan nan nan nan nan nan nan nan nan nan 235 261 279 293 288 296 311 322 336 332 333 336
312 328 333 330 343 354 nan nan nan nan nan nan nan nan nan nan nan nan nan nan nan nan nan nan nan nan nan nan nan nan nan 261 267 278 275 282 286 292 300 312 315 309 314
311 309 322 327 338 359 359 nan nan nan nan nan nan nan nan nan nan nan nan nan nan nan nan nan nan nan nan nan nan nan nan 255 252 255 267 273 279 284 289 292 300 294 292
296 299 304 322 330 345 346 338 nan nan nan nan nan nan nan nan nan nan nan nan nan nan nan nan nan nan nan nan nan nan 247 252 259 265 265 264 273 284 288 287 282 283 290
nan nan 295 306 313 316 322 335 340 nan nan nan nan nan nan nan nan nan nan nan nan nan nan nan 271 nan nan nan nan 254 254 257 262 270 278 278 284 279 278 284 285 285 286
nan nan 287 297 294 310 316 322 316 330 340 nan nan nan nan nan 321 nan nan nan nan nan 278 274 276 267 266 269 262 256 259 261 267 272 274 280 283 279 280 281 282 284 285
nan 269 278 282 290 297 305 296 279 283 286 318 335 345 347 332 326 322 312 306 296 nan 286 280 275 272 268 267 267 269 265 266 263 267 270 271 273 274 279 284 283 282 280
nan nan 262 270 277 282 289 294 309 307 303 316 329 333 339 345 342 330 321 311 305 295 295 287 282 278 270 269 260 262 260 267 267 260 262 267 271 273 275 274 nan nan nan
nan nan 261 263 263 273 285 290 294 301 300 291 301 319 332 332 343 338 330 317 312 303 299 294 289 290 284 274 270 263 263 265 266 270 273 271 269 273 273 nan nan nan nan
nan nan nan 269 266 270 280 287 301 306 293 295 302 312 317 323 330 341 337 331 322 309 304 295 293 292 289 285 282 278 275 272 274 275 269 268 271 271 271 nan nan nan nan